Temperature
23 22 22 21 20 20 22 25 27 27 27 27 26 26 25 24 23 22 21 21 22 22 21 20 20 20 20 20 19 19 19 19 19 19 19 19 19 19 19 19 19 18 18 18 18 18 18 18 18
23 22 22 21 20 21 23 26 27 27 27 26 26 25 24 24 23 21 21 22 22 22 21 21 20 20 20 20 19 19 19 19 19 19 19 19 19 19 18 19 19 18 18 18 18 18 18 18 17
23 22 21 19 20 22 25 27 27 28 28 27 26 25 25 24 22 22 22 22 22 22 21 21 20 20 20 20 19 19 19 19 19 19 18 19 18 18 18 19 18 18 18 18 18 18 18 17 17
23 22 21 20 22 24 26 27 28 28 27 26 25 24 24 24 23 23 22 22 22 22 21 21 21 20 20 20 19 19 19 19 19 19 18 18 18 18 18 18 18 18 18 18 18 18 18 17 17
23 22 20 21 23 26 28 29 28 27 27 26 25 23 23 23 24 23 22 22 22 22 21 21 21 21 20 20 19 19 19 19 19 19 18 18 18 18 18 18 18 18 18 18 18 18 18 17 17
23 21 21 21 24 27 29 29 29 27 26 25 24 23 22 22 23 22 22 22 22 22 21 21 21 21 20 20 20 19 19 19 19 18 18 18 18 18 18 18 18 18 18 18 18 18 18 17 17
23 21 21 23 25 27 29 30 29 27 26 25 25 22 22 21 22 22 22 22 22 22 21 21 21 20 20 20 20 19 19 19 19 18 18 18 18 18 18 18 18 18 18 18 18 18 18 17 17
25 21 22 23 26 27 29 30 29 28 27 26 25 22 22 21 21 21 21 21 21 21 21 21 21 20 20 20 20 19 19 19 19 18 18 18 18 18 18 18 18 18 18 18 18 18 18 17 17
26 22 21 24 26 28 30 30 29 29 27 26 26 25 24 22 21 21 20 20 21 21 21 21 21 20 20 20 19 19 19 19 19 18 18 18 18 18 18 18 18 18 18 18 18 18 18 17 17
25 21 23 26 28 29 30 30 29 28 26 25 25 25 24 22 21 20 20 20 20 20 20 21 20 20 20 20 19 19 19 19 19 19 18 18 18 18 18 18 18 18 18 18 18 18 18 17 17
25 24 26 27 29 30 30 30 30 27 25 25 25 24 23 22 21 21 21 21 21 21 20 20 20 20 20 20 19 19 19 19 19 18 18 18 18 18 18 18 18 18 18 18 18 18 18 18 17
26 26 28 29 30 30 30 30 28 28 28 28 27 25 23 22 21 21 21 20 21 20 20 20 20 20 20 20 20 19 19 19 18 18 18 18 18 18 18 18 18 18 18 18 18 18 18 18 17
27 27 29 30 30 30 30 29 28 27 28 27 26 25 24 23 22 22 21 21 20 20 20 20 20 20 20 19 19 19 19 19 19 18 18 18 18 18 18 18 18 18 18 18 18 18 18 17 17
27 28 28 29 30 30 29 28 27 27 27 26 25 24 24 23 22 21 21 20 20 20 20 20 20 19 19 19 19 19 19 19 18 18 18 18 18 18 18 18 18 18 18 18 17 17 17 17 17
28 26 27 28 29 29 29 27 26 27 26 25 24 23 23 23 22 22 21 21 20 20 20 20 19 19 19 19 19 19 19 19 18 18 18 18 18 18 18 18 18 18 17 17 17 17 17 17 17
26 25 25 27 28 29 28 26 26 27 25 24 23 22 22 23 22 22 21 21 20 20 20 20 19 19 19 19 19 18 19 19 18 18 18 18 18 18 18 18 18 17 17 17 17 17 17 17 17
24 24 25 27 29 29 27 26 26 26 25 24 23 22 22 22 22 22 22 21 20 20 20 19 19 19 19 18 18 18 18 18 18 18 18 18 18 18 18 18 17 17 17 17 17 17 17 17 17
23 24 25 26 28 28 27 25 26 26 25 24 23 22 22 22 22 22 22 21 20 20 20 19 19 19 19 18 18 18 18 18 18 18 18 18 18 18 18 18 17 17 17 17 17 17 17 17 17
25 25 25 27 28 28 26 26 25 25 24 23 22 22 21 21 22 21 21 21 20 20 19 19 19 18 18 18 18 18 18 18 18 18 18 18 18 18 18 18 17 17 17 17 17 17 17 17 17
26 25 25 26 28 28 26 25 24 24 24 23 22 22 22 21 21 21 21 20 20 20 19 19 19 18 18 18 18 18 18 18 18 18 18 18 18 18 18 18 17 17 17 17 17 17 17 17 17
26 25 26 26 27 26 25 24 23 23 24 23 23 22 22 21 21 21 21 20 20 20 19 19 19 18 18 18 18 18 18 17 17 18 18 18 18 18 18 17 17 17 17 17 17 17 17 17 17
25 27 27 27 25 23 24 22 22 22 22 22 22 22 21 21 21 21 21 20 20 20 19 19 19 18 18 18 18 18 18 18 18 18 18 18 17 17 17 17 17 17 17 17 17 17 17 17 17
26 27 27 27 25 22 22 22 21 20 21 21 21 21 21 21 21 21 21 20 20 19 19 19 18 18 18 18 18 18 18 18 18 18 17 17 17 17 17 17 17 17 17 16 16 16 16 16 17
28 27 25 22 20 21 21 22 21 19 20 20 21 21 21 21 21 21 20 20 20 19 19 18 18 18 18 18 18 18 18 18 17 17 17 17 17 17 17 17 17 17 16 16 16 16 16 16 16
27 23 21 22 20 20 20 21 20 20 21 21 21 21 21 21 21 21 20 20 19 19 18 18 18 18 17 17 17 17 17 17 17 17 17 17 17 17 17 17 17 16 16 16 16 16 16 16 16
25 22 21 22 21 20 20 20 20 21 21 21 22 21 21 21 21 21 20 20 19 19 18 18 18 17 17 17 17 17 17 17 17 17 17 18 17 17 17 17 17 16 16 16 16 16 16 16 16
26 23 21 20 21 20 20 20 20 20 20 21 21 20 20 20 21 20 20 19 19 19 18 18 17 17 17 17 17 17 17 17 17 17 17 17 17 17 17 17 16 16 16 16 16 16 16 16 16
26 24 20 20 21 21 20 20 19 20 20 20 20 20 20 20 20 20 20 19 19 18 18 18 18 17 17 17 17 17 17 17 17 17 17 17 17 17 17 16 16 16 16 16 16 16 16 16 16
26 25 22 19 19 20 20 20 21 20 20 20 20 20 20 20 20 19 19 19 19 18 18 18 17 17 17 17 17 17 17 16 17 17 17 17 17 17 16 16 16 16 16 16 15 15 15 15 15
25 24 21 21 21 19 19 20 22 20 20 20 20 20 20 20 20 20 19 19 18 18 17 17 17 17 17 17 17 17 16 16 16 16 16 16 16 16 16 16 16 16 16 15 15 15 15 15 15
Wind_Speed
7 6 3 0 3 3 3 2 5 6 5 7 10 10 8 5 4 4 5 16 20 18 18 21 22 22 21 21 20 19 19 18 17 17 17 16 16 16 16 16 15 15 15 15 15 15 15 15 16
4 4 1 3 4 2 3 3 6 7 9 12 11 10 8 5 6 9 8 17 20 18 18 20 22 22 22 21 20 19 19 18 17 17 16 16 16 16 15 15 15 15 14 14 14 15 15 15 15
3 2 1 3 0 3 3 2 6 9 12 10 7 5 5 5 8 7 11 19 18 15 17 21 23 23 22 21 20 19 18 18 17 16 16 16 15 15 15 15 15 14 14 14 14 14 14 14 14
1 2 3 2 6 8 7 6 5 9 8 9 9 6 3 2 6 12 20 20 18 14 17 22 24 23 22 21 21 20 18 18 17 17 16 16 15 15 15 15 14 14 14 13 13 13 13 13 12
2 3 3 3 6 6 5 6 9 8 6 8 10 7 2 3 15 22 21 20 19 15 15 21 23 23 22 21 20 20 19 18 17 17 16 16 15 15 15 14 14 13 13 13 13 12 12 11 11
2 3 1 3 6 6 3 5 9 10 10 11 10 8 3 8 17 19 19 18 18 17 14 20 23 23 22 21 20 20 19 18 17 16 16 15 15 15 14 14 13 13 13 12 12 11 11 10 9
3 2 3 4 6 5 3 4 8 10 10 9 11 8 5 10 15 18 18 17 16 16 14 14 18 21 22 21 21 20 19 18 17 16 16 16 15 14 14 14 13 13 12 12 11 10 9 9 8
5 2 4 4 5 4 4 4 7 10 8 10 9 10 8 13 16 17 16 15 15 14 13 11 13 16 17 18 20 20 19 18 17 16 16 16 15 14 14 13 12 12 11 11 10 9 8 7 7
3 1 5 6 5 5 3 3 3 5 9 5 5 6 11 20 20 19 16 13 14 14 12 12 11 12 14 15 18 18 18 18 17 15 15 14 12 12 12 12 12 11 10 10 9 8 6 6 6
5 5 9 8 7 6 4 2 4 5 6 4 5 8 16 20 21 22 20 18 17 17 14 12 12 11 12 14 14 14 14 15 13 12 13 12 11 11 11 12 12 11 10 9 8 6 5 4 4
6 9 11 12 13 8 4 1 3 8 4 7 12 15 18 18 18 19 19 19 19 19 17 13 13 12 11 8 11 10 10 11 11 12 12 11 10 8 8 8 8 8 8 6 5 4 3 3 3
6 11 12 12 11 6 5 3 2 4 7 12 17 20 19 19 19 19 19 18 17 17 16 15 14 12 10 10 9 9 8 8 8 11 12 10 6 5 6 6 7 6 5 5 4 3 4 4 4
8 10 11 10 10 7 4 1 4 4 7 13 16 17 17 17 15 14 15 16 16 16 16 16 15 14 11 9 7 8 7 8 10 11 12 11 6 5 6 5 6 6 6 5 4 4 3 3 4
7 9 11 10 9 6 4 2 3 4 10 15 17 15 14 14 14 14 14 14 16 16 16 14 14 13 12 10 8 7 9 10 10 10 11 12 10 7 5 4 5 5 6 7 5 4 3 3 3
6 9 12 9 6 5 2 3 4 7 11 14 14 13 12 11 12 14 15 15 17 17 15 13 13 12 13 11 9 7 8 10 8 9 11 12 11 10 7 4 4 5 7 6 4 3 3 2 2
7 6 6 11 9 7 2 6 6 7 12 12 11 12 11 10 11 11 13 13 14 15 15 14 14 13 12 10 8 5 7 8 8 10 10 11 12 11 8 4 4 5 5 4 3 2 2 2 3
4 4 7 12 10 5 2 5 6 8 12 12 11 11 11 9 8 9 11 14 15 15 15 14 13 13 12 9 7 5 5 6 8 9 9 10 11 11 8 4 4 5 4 2 3 2 3 3 2
7 7 9 11 9 4 2 5 5 6 10 11 11 10 11 11 11 10 10 12 13 13 13 13 12 11 10 9 7 5 5 4 5 7 8 10 11 11 8 4 4 5 3 3 3 3 2 2 3
10 12 15 15 11 2 2 3 3 5 7 8 8 9 10 10 8 9 10 11 12 12 12 12 13 11 10 8 8 7 6 4 4 5 8 10 10 10 8 4 3 3 4 4 5 3 3 2 2
13 14 13 12 7 1 1 2 1 3 7 10 11 10 11 10 8 9 9 10 11 12 12 12 13 14 11 9 7 6 6 4 5 4 6 9 10 9 7 5 5 4 4 4 4 4 3 1 2
16 12 10 8 5 5 4 4 4 3 0 3 7 8 10 13 14 12 10 10 11 12 13 13 13 12 11 10 8 7 5 4 3 4 4 5 8 8 7 7 5 5 4 4 4 4 5 2 1
13 14 10 5 3 4 2 1 5 4 3 1 3 5 7 9 11 11 11 10 11 11 11 11 11 12 11 11 11 11 8 6 6 6 5 5 7 8 8 8 6 5 4 4 4 4 4 4 2
12 12 6 2 1 3 5 2 6 4 3 3 3 5 7 9 11 12 11 11 9 9 10 10 10 10 10 11 12 11 8 6 5 5 7 6 4 6 7 7 6 5 4 4 4 4 4 3 3
9 3 5 6 6 2 4 1 5 3 4 4 3 3 5 8 10 9 8 8 7 7 8 9 10 9 10 11 11 11 10 9 9 8 7 6 4 4 5 7 6 5 4 5 5 5 5 4 3
3 3 4 5 5 4 4 2 7 6 5 3 3 4 5 7 9 10 9 8 8 8 9 9 9 9 9 10 10 10 11 11 11 10 9 7 5 4 5 5 5 5 4 5 4 4 4 4 3
7 10 8 5 5 5 3 4 6 7 5 2 0 4 6 8 9 10 10 9 9 9 9 9 9 8 9 10 9 8 9 8 7 8 8 8 6 5 6 6 6 6 5 5 4 3 3 3 3
7 7 11 8 3 1 3 4 6 4 4 4 3 3 4 7 8 8 8 7 7 8 8 9 9 8 8 8 8 8 8 8 8 8 7 6 5 6 7 7 7 6 5 5 5 3 3 3 3
10 8 7 6 5 2 3 4 5 6 5 2 1 3 3 5 6 7 7 7 6 6 7 8 9 9 8 8 8 8 7 8 8 7 8 7 7 7 8 7 7 6 5 5 5 3 3 4 2
2 4 5 6 7 7 4 6 7 10 7 5 5 5 6 7 7 7 6 6 6 6 7 7 8 9 8 8 7 7 7 7 7 7 7 8 7 7 8 7 7 6 6 5 4 3 3 4 2
4 5 7 5 4 5 5 6 4 8 6 5 6 6 7 8 8 7 7 6 6 6 6 7 8 9 8 8 7 7 7 7 7 7 7 7 7 7 7 7 6 6 6 6 6 5 4 4 3
Wind_Direction
191 191 182 111 48 31 276 232 134 103 80 74 83 93 97 97 131 145 130 139 137 142 147 147 145 142 139 137 135 133 130 127 124 121 118 116 115 114 113 112 110 109 109 110 110 110 111 110 111
184 191 154 49 62 360 279 196 122 119 125 108 90 94 89 76 95 110 121 139 137 139 143 146 145 143 141 139 138 136 134 131 129 126 122 120 119 118 116 115 114 113 112 112 113 112 112 111 112
198 195 110 70 130 218 256 220 125 114 122 113 98 75 90 114 119 125 141 139 135 137 141 147 145 144 142 142 141 139 137 135 132 129 127 125 123 121 120 118 117 116 116 116 115 114 113 112 113
143 70 48 53 266 248 233 228 145 117 106 104 107 85 55 111 137 135 138 139 136 137 142 147 145 144 144 143 143 141 139 138 135 132 131 129 127 125 123 121 120 120 120 119 117 116 115 114 113
94 83 41 312 278 266 246 190 158 128 124 117 111 114 65 34 119 132 140 142 140 140 143 147 146 146 146 146 145 144 143 141 138 136 134 132 130 128 126 124 123 124 124 123 122 121 120 117 114
54 79 75 283 280 277 245 147 133 113 121 126 120 123 118 128 132 140 144 144 143 144 144 148 149 149 149 148 149 148 147 144 142 141 139 137 134 132 130 128 126 127 128 128 128 127 125 121 115
149 139 220 249 275 274 219 156 133 135 142 150 140 123 130 145 147 144 145 142 143 144 144 147 150 152 152 152 152 151 150 148 147 145 143 141 139 138 136 133 132 132 133 134 134 131 128 126 121
167 124 271 259 265 271 218 165 144 144 146 139 136 142 165 165 148 141 139 139 142 146 149 149 151 152 153 154 155 154 153 153 152 150 149 148 146 144 142 139 139 139 140 140 139 137 133 129 121
154 104 259 246 253 267 238 133 139 126 123 135 145 161 156 147 141 140 139 141 148 154 157 154 152 151 152 154 159 158 157 159 158 158 157 152 148 148 149 150 149 147 147 147 146 145 143 132 119
151 194 239 235 248 264 275 157 150 118 111 109 104 113 134 143 147 150 154 159 161 162 164 163 159 157 158 161 156 158 158 161 160 163 159 154 156 161 162 163 159 157 157 157 160 162 157 134 116
191 216 252 267 266 264 263 218 144 137 157 174 160 151 149 149 153 158 163 168 167 166 166 167 166 165 166 158 158 161 159 162 164 167 166 164 167 172 169 167 168 167 167 169 174 182 182 170 153
247 260 262 269 275 282 261 182 136 164 188 173 161 155 156 158 163 166 167 169 167 164 167 169 171 171 169 162 165 166 164 169 172 177 175 169 166 168 167 171 177 178 181 181 183 196 218 220 192
263 273 280 273 285 282 299 215 159 173 151 143 148 153 160 165 166 167 166 166 166 169 170 174 173 172 166 162 170 171 171 175 177 180 181 172 163 163 168 177 183 192 194 188 191 193 199 190 160
275 294 301 296 296 298 302 277 137 184 143 140 148 159 167 168 162 161 167 167 170 171 171 173 172 170 164 166 170 171 174 173 172 176 179 174 167 164 163 168 180 191 191 186 184 180 172 162 148
315 320 313 300 294 283 22 320 220 174 143 142 154 161 163 165 163 166 170 168 169 169 169 169 169 166 165 167 172 169 167 165 165 171 173 169 165 163 161 158 171 183 179 171 159 152 139 135 127
339 331 305 293 290 279 141 253 250 168 145 146 155 161 162 167 165 163 163 161 165 166 167 171 172 168 165 165 165 158 158 159 161 165 167 165 163 159 153 152 171 176 165 154 138 129 114 116 124
341 299 287 295 290 275 172 226 229 177 159 158 161 164 162 161 164 164 161 160 166 168 166 169 170 168 165 158 151 145 146 154 157 160 159 160 157 153 148 152 167 162 141 135 148 126 136 141 142
265 280 289 286 289 282 231 215 206 176 158 157 160 163 163 169 176 167 162 163 164 166 165 166 162 164 160 152 143 136 136 143 151 155 157 156 155 150 145 148 154 143 130 132 129 128 123 140 154
259 277 283 282 276 286 230 188 179 168 153 154 164 166 165 169 168 161 162 160 160 165 164 164 161 164 162 158 155 154 159 159 159 161 160 155 155 152 145 140 138 136 145 153 147 128 117 97 112
264 273 278 285 300 348 72 46 198 173 172 173 175 176 170 161 158 162 163 164 164 167 166 168 168 169 170 166 162 159 156 163 166 165 157 160 159 156 155 145 148 148 142 139 136 125 121 90 115
267 258 260 271 316 10 60 4 330 319 6 165 167 169 170 171 170 171 172 171 168 169 173 177 175 171 169 159 147 139 125 120 138 156 165 172 163 158 153 151 144 147 149 153 153 140 135 135 76
261 257 255 277 347 321 40 249 284 293 336 145 177 172 179 177 172 172 173 174 176 177 173 174 174 171 167 160 159 159 161 169 180 173 172 172 165 157 153 150 146 149 149 154 159 145 140 136 129
247 255 254 280 85 20 5 107 282 324 313 296 257 197 181 182 180 178 178 176 174 173 174 173 170 170 169 167 166 166 167 170 160 156 161 166 163 158 154 149 142 145 147 152 145 132 128 133 143
254 288 20 46 67 14 284 187 278 271 258 298 288 212 182 181 178 175 168 159 162 165 167 167 169 173 172 170 169 169 169 165 158 163 167 168 163 160 161 149 142 143 144 150 145 137 133 131 130
256 98 23 353 3 261 269 193 246 259 263 256 246 202 192 178 167 164 163 164 165 164 165 165 169 173 173 172 174 174 173 169 171 171 171 167 164 167 174 156 151 147 151 153 143 132 136 142 138
217 147 161 200 227 259 297 231 258 272 285 299 165 165 168 172 171 169 170 166 166 168 169 166 170 171 171 172 173 171 169 168 173 173 169 170 174 175 170 160 158 156 155 153 140 133 149 151 151
192 189 174 149 170 171 269 281 297 299 334 4 50 98 165 175 170 165 161 161 166 168 173 172 169 167 169 167 161 161 164 166 170 168 166 165 166 171 165 159 155 155 155 152 144 145 158 152 158
179 171 108 126 159 219 263 249 239 249 240 223 150 159 172 153 151 152 156 157 159 159 162 167 169 169 167 162 163 163 163 166 165 162 163 162 167 161 157 159 158 157 158 154 148 147 156 151 164
162 143 130 134 152 153 208 258 221 209 208 188 191 178 163 153 148 152 157 151 146 144 150 154 158 156 157 159 157 155 160 160 157 161 164 161 159 156 160 163 163 164 164 158 155 166 158 165 175
156 164 141 149 214 164 167 254 249 189 185 178 187 179 158 155 152 147 150 145 143 147 151 156 158 156 158 157 152 152 152 151 151 154 156 151 149 157 162 159 163 170 171 169 171 186 180 178 186
Height
1510 1510 1509 1509 1511 1517 1515 1500 1490 1489 1490 1491 1491 1493 1497 1500 1505 1512 1508 1509 1513 1517 1520 1524 1526 1528 1529 1531 1532 1533 1534 1535 1536 1537 1538 1539 1540 1541 1542 1543 1543 1544 1545 1545 1546 1546 1547 1548 1548
1510 1510 1510 1509 1517 1527 1515 1495 1490 1488 1490 1491 1493 1495 1497 1501 1502 1504 1506 1511 1515 1517 1521 1524 1526 1528 1530 1531 1533 1534 1535 1536 1537 1538 1539 1540 1541 1542 1543 1544 1545 1545 1546 1547 1547 1548 1549 1550 1550
1511 1510 1511 1513 1520 1522 1510 1493 1488 1487 1489 1490 1494 1497 1499 1502 1503 1504 1507 1511 1515 1518 1521 1524 1526 1528 1530 1531 1533 1534 1536 1537 1538 1539 1540 1541 1542 1544 1544 1545 1546 1547 1548 1548 1549 1550 1551 1552 1552
1511 1511 1512 1517 1518 1505 1496 1491 1488 1487 1490 1491 1493 1498 1501 1503 1503 1504 1508 1512 1515 1518 1522 1524 1526 1528 1530 1532 1533 1535 1536 1538 1539 1540 1541 1542 1544 1545 1546 1547 1548 1548 1549 1550 1551 1552 1553 1554 1554
1511 1511 1516 1521 1512 1496 1487 1485 1485 1486 1489 1491 1492 1497 1500 1503 1503 1505 1508 1512 1515 1518 1521 1524 1526 1529 1531 1532 1534 1535 1537 1538 1540 1541 1542 1544 1545 1546 1547 1548 1549 1550 1551 1552 1553 1554 1555 1556 1556
1511 1511 1522 1522 1507 1492 1485 1483 1484 1486 1489 1491 1492 1496 1501 1502 1503 1506 1509 1512 1515 1517 1521 1524 1526 1528 1530 1532 1534 1536 1538 1539 1540 1542 1543 1545 1546 1547 1548 1549 1550 1551 1552 1553 1555 1556 1557 1558 1558
1511 1513 1519 1513 1503 1493 1484 1482 1482 1484 1486 1488 1489 1495 1500 1502 1503 1506 1509 1512 1515 1518 1520 1523 1526 1528 1530 1532 1534 1536 1538 1540 1541 1543 1544 1545 1547 1548 1549 1551 1552 1553 1554 1555 1556 1557 1558 1559 1560
1508 1511 1514 1510 1501 1492 1482 1481 1481 1481 1484 1487 1488 1491 1496 1500 1503 1506 1509 1512 1514 1517 1520 1522 1525 1527 1529 1532 1534 1536 1538 1540 1542 1543 1545 1546 1547 1549 1550 1552 1553 1554 1555 1556 1558 1559 1560 1561 1562
1507 1514 1516 1506 1496 1488 1480 1480 1481 1481 1482 1485 1486 1487 1490 1497 1501 1504 1508 1511 1513 1516 1519 1521 1524 1527 1529 1531 1533 1536 1538 1540 1542 1544 1545 1546 1548 1550 1551 1553 1554 1555 1557 1558 1559 1560 1561 1562 1563
1503 1513 1504 1491 1486 1483 1478 1477 1479 1481 1482 1484 1485 1488 1492 1495 1498 1501 1504 1507 1510 1513 1517 1520 1522 1525 1528 1530 1533 1535 1538 1540 1542 1544 1545 1547 1548 1550 1552 1553 1555 1556 1558 1559 1560 1561 1562 1564 1565
1498 1500 1490 1485 1482 1480 1477 1476 1476 1478 1482 1481 1482 1486 1490 1494 1496 1499 1501 1504 1507 1510 1514 1518 1521 1524 1527 1529 1532 1534 1537 1539 1541 1544 1545 1547 1549 1550 1552 1554 1555 1557 1558 1560 1561 1562 1563 1565 1566
1494 1489 1485 1482 1478 1477 1475 1474 1475 1474 1475 1476 1478 1482 1487 1490 1493 1496 1499 1502 1506 1509 1512 1516 1520 1522 1525 1528 1531 1534 1536 1538 1541 1543 1545 1547 1548 1550 1552 1554 1556 1557 1559 1560 1561 1563 1564 1565 1566
1489 1485 1481 1478 1475 1473 1472 1472 1473 1473 1472 1475 1478 1482 1485 1488 1491 1495 1497 1501 1504 1507 1511 1515 1517 1520 1524 1527 1530 1533 1535 1538 1540 1543 1545 1547 1548 1550 1552 1554 1556 1557 1559 1560 1562 1563 1564 1565 1566
1486 1482 1478 1474 1471 1470 1471 1472 1472 1473 1472 1474 1477 1480 1484 1486 1488 1492 1495 1498 1501 1504 1508 1512 1515 1518 1522 1525 1529 1532 1535 1537 1539 1542 1545 1546 1548 1550 1552 1554 1556 1557 1559 1560 1561 1563 1564 1565 1566
1484 1483 1478 1471 1469 1468 1471 1476 1472 1471 1473 1474 1477 1479 1483 1485 1488 1489 1491 1494 1497 1501 1505 1509 1512 1516 1520 1524 1528 1531 1533 1536 1538 1541 1544 1546 1548 1550 1552 1553 1555 1557 1558 1560 1561 1563 1564 1565 1566
1485 1488 1490 1474 1468 1466 1474 1484 1471 1471 1472 1474 1477 1480 1481 1483 1486 1488 1490 1492 1495 1499 1502 1507 1510 1514 1518 1523 1526 1529 1532 1535 1537 1540 1543 1545 1548 1549 1551 1553 1555 1556 1558 1559 1560 1562 1563 1565 1566
1494 1499 1494 1480 1465 1464 1470 1479 1470 1469 1470 1472 1475 1478 1481 1483 1485 1487 1489 1491 1493 1496 1500 1503 1507 1512 1516 1521 1525 1528 1531 1533 1536 1539 1542 1544 1546 1548 1550 1552 1554 1555 1557 1558 1559 1561 1562 1564 1565
1503 1499 1493 1485 1468 1465 1470 1473 1469 1469 1469 1471 1473 1476 1479 1482 1483 1485 1487 1490 1493 1496 1499 1502 1505 1510 1514 1518 1523 1526 1529 1532 1535 1538 1541 1543 1545 1547 1549 1551 1553 1554 1556 1557 1558 1560 1561 1563 1564
1491 1492 1491 1479 1465 1466 1471 1472 1470 1469 1470 1472 1474 1475 1477 1479 1482 1485 1487 1489 1492 1495 1497 1500 1503 1507 1511 1515 1519 1523 1526 1530 1534 1537 1539 1542 1543 1545 1547 1549 1551 1553 1554 1556 1557 1559 1560 1562 1563
1486 1490 1487 1475 1463 1467 1473 1474 1471 1468 1468 1469 1471 1474 1476 1478 1481 1483 1485 1487 1489 1492 1495 1498 1501 1505 1509 1513 1517 1521 1524 1528 1532 1535 1538 1540 1542 1544 1546 1548 1549 1551 1553 1554 1556 1557 1559 1561 1562
1483 1485 1481 1476 1469 1468 1474 1483 1478 1471 1469 1469 1470 1472 1474 1476 1478 1481 1483 1485 1488 1490 1492 1495 1499 1502 1507 1511 1516 1519 1523 1527 1530 1533 1535 1538 1540 1542 1544 1546 1548 1550 1551 1553 1555 1556 1557 1559 1561
1484 1469 1468 1469 1479 1489 1482 1501 1486 1476 1473 1472 1471 1472 1474 1475 1477 1479 1481 1484 1486 1488 1491 1493 1497 1500 1504 1508 1512 1516 1519 1522 1526 1529 1533 1536 1538 1540 1542 1545 1546 1548 1550 1552 1553 1554 1556 1558 1559
1470 1461 1463 1467 1478 1491 1489 1497 1493 1480 1478 1474 1471 1471 1471 1474 1476 1478 1480 1482 1484 1487 1489 1492 1495 1498 1502 1505 1509 1513 1517 1520 1524 1527 1531 1534 1536 1538 1541 1543 1545 1547 1548 1550 1551 1553 1555 1556 1558
1457 1461 1468 1478 1490 1506 1497 1498 1497 1485 1479 1473 1469 1469 1470 1473 1475 1477 1480 1482 1483 1486 1488 1490 1493 1496 1499 1502 1506 1510 1514 1518 1521 1525 1528 1531 1534 1536 1539 1541 1543 1545 1547 1548 1550 1552 1553 1555 1557
1458 1479 1501 1504 1514 1511 1495 1497 1494 1475 1470 1468 1467 1466 1470 1473 1474 1475 1478 1481 1482 1485 1486 1489 1491 1494 1497 1500 1503 1507 1511 1515 1519 1522 1525 1529 1531 1534 1536 1539 1541 1543 1545 1547 1548 1550 1552 1553 1555
1459 1474 1501 1512 1516 1510 1496 1497 1485 1470 1465 1463 1464 1466 1469 1472 1474 1475 1477 1479 1481 1483 1485 1487 1489 1492 1494 1497 1501 1505 1509 1513 1516 1520 1523 1526 1529 1532 1535 1537 1539 1541 1543 1545 1547 1549 1550 1552 1553
1457 1465 1469 1490 1498 1509 1503 1492 1478 1467 1463 1463 1465 1467 1470 1471 1473 1475 1476 1479 1480 1482 1484 1485 1488 1490 1493 1496 1499 1503 1506 1510 1514 1517 1521 1524 1527 1530 1533 1536 1538 1540 1542 1544 1545 1547 1549 1550 1552
1441 1450 1473 1488 1503 1510 1504 1496 1490 1473 1466 1464 1465 1468 1471 1472 1473 1475 1477 1478 1480 1481 1483 1485 1487 1489 1492 1495 1498 1501 1504 1507 1511 1515 1518 1522 1525 1528 1531 1534 1536 1538 1540 1542 1544 1546 1547 1549 1550
1445 1452 1464 1481 1487 1504 1510 1498 1468 1466 1463 1464 1466 1468 1471 1472 1473 1475 1477 1478 1479 1481 1482 1484 1486 1488 1491 1493 1496 1499 1502 1506 1509 1513 1516 1520 1524 1527 1530 1532 1535 1537 1539 1541 1542 1544 1546 1547 1549
1441 1448 1461 1479 1484 1487 1495 1490 1459 1460 1461 1462 1464 1465 1467 1470 1472 1474 1477 1478 1479 1481 1482 1484 1486 1488 1490 1493 1496 1499 1502 1505 1508 1511 1515 1518 1522 1525 1528 1531 1533 1535 1537 1539 1541 1542 1544 1546 1547